Flag for U.S.A. Weather past 2 weeks in Glendale, California, U.S.A.

Now
59 °F

Sunny.


Feels Like: 59 °F
Forecast: 56 / 79 °F
Wind: No wind

Location: Burbank-Glendale-Pasadena Airport


UV Index: 5 (Moderate)

Visibility: 8 mi


Pressure: 30.03 "Hg

Humidity: 81%

Dew point: 53 °F

Location of GlendaleLocation

Historic Weather in Glendale

°F

Glendale temperature yesterday

Maximum temperature yesterday: 74 °F (at 1:53 PM)
Minimum temperature yesterday: 54 °F (at 5:53 AM)
Average temperature yesterday: 64 °F

Past Weeks' High & Low Weather Summary

 TemperatureHumidityPressure
High91 °F (Apr 9, 2:53 PM)90% (Apr 18, 6:53 AM)30.08 "Hg (Apr 18, 6:53 AM)
Low49 °F (Apr 6, 5:53 AM)5% (Apr 9, 12:53 PM)29.74 "Hg (Apr 16, 4:53 PM)
Average66 °F48%29.93 "Hg
* Reported Apr 5 7:53 AM — Apr 20 7:53 AM, Glendale, Weather by CustomWeather, © 2014

Note: Actual official high and low records may vary slightly from our data, if they occured in-between our weather recording intervals... More about our weather records

Advertising

Historic Weather Conditions — Data for Previous 24 hours

 ConditionsComfort  
Time TempWeatherWind HumidityBarometerVisibility
7:53 AM
Apr 20
59 °FSunny.No wind81%30.03 "Hg8 mi
6:53 AM56 °FPassing clouds.No wind84%30.01 "Hg10 mi
5:53 AM56 °FClear.3 mph81%30.00 "Hg10 mi
4:53 AM57 °FClear.No wind81%29.99 "Hg10 mi
3:53 AM59 °FClear.3 mph75%30.00 "Hg10 mi
2:53 AM59 °FClear.No wind75%30.00 "Hg10 mi
1:53 AM60 °FClear.No wind75%30.01 "Hg10 mi
12:53 AM60 °FClear.No wind75%30.01 "Hg10 mi
11:53 PM
Apr 19
61 °FClear.6 mph72%30.01 "Hg10 mi
10:53 PM62 °FClear.10 mph70%30.01 "Hg10 mi
9:53 PM63 °FClear.8 mph68%29.98 "Hg10 mi
8:53 PM64 °FClear.6 mph65%29.96 "Hg10 mi
7:53 PM66 °FSunny.7 mph63%29.95 "Hg10 mi
6:53 PM67 °FSunny.5 mph63%29.95 "Hg10 mi
5:53 PM71 °FSunny.8 mph55%29.93 "Hg10 mi
4:53 PM73 °FSunny.9 mph50%29.92 "Hg10 mi
3:53 PM74 °FSunny.8 mph46%29.92 "Hg10 mi
2:53 PM74 °FSunny.7 mph46%29.93 "Hg10 mi
1:53 PM74 °FSunny.5 mph46%29.94 "Hg10 mi
12:53 PM72 °FSunny.5 mph49%29.96 "Hg10 mi
11:53 AM71 °FSunny.3 mph49%29.97 "Hg10 mi
10:53 AM69 °FSunny.No wind49%29.97 "Hg10 mi
9:53 AM64 °FSunny.5 mph61%29.96 "Hg10 mi
8:53 AM61 °FSunny.3 mph67%29.95 "Hg10 mi
Weather by CustomWeather, © 2014

See weather overview